[[{"header":{"parameterUnit":"m.s-1","parameterCategory":1,"la1":30.2991,"la2":30.254,"lo1":-89.0895,"lo2":-89.0444,"dy":0.0017,"dx":0.0017,"nx":28,"ny":28,"refTime":"2023-08-15T03:00:00:Z","depth":0,"parameterNumber":2,"parameterNumberName":"U-component_of_WINDS"},"data":[0,0,0,0,0,0,0,0,0,0,0,0,0,0,0,0,0,0,0,0,0,0,0,0,0,0,0,0,0,0,0,0,0,0,0,0,0,0,0,0,0,0,0,0,0,0,0,0,0,0,0,0,0,0,0,0,0,0,2.0128,2.0129,0,2.0228,2.0229,2.023,2.0242,2.0241,2.024,2.0239,2.0346,2.0349,2.0353,0,0,0,0,0,0,0,0,0,0,0,0,0,1.9954,1.9957,2.0128,2.013,2.0131,2.0227,2.0229,2.023,2.0242,2.024,2.0239,2.0238,2.0344,2.0349,2.0353,0,0,0,0,0,0,0,0,0,0,0,0,0,2.0039,1.9958,2.0128,2.0148,2.0151,2.0227,2.0229,2.023,2.0242,2.024,2.0239,2.0238,2.0343,2.0348,2.0354,2.0419,0,0,2.0371,2.0374,0,0,0,0,0,0,0,0,2.0035,2.0046,2.0144,2.0147,2.015,2.022,2.0207,2.0294,2.0242,2.0208,2.0239,2.0237,2.0306,2.0314,2.0336,2.0424,2.0428,2.0372,2.0375,2.0378,2.0379,0,0,0,0,0,0,0,2.0029,2.0042,2.0168,2.0145,2.0149,2.0154,2.0164,2.0223,2.0264,2.021,2.0212,2.0223,2.0307,2.0331,2.0339,2.043,2.0372,2.0377,2.038,2.0382,2.0576,2.0577,0,0,0,0,0,0,2.0018,2.0037,2.0165,2.0171,2.0087,2.0158,2.017,2.02,2.0263,2.0271,2.0224,2.0223,2.0322,2.0332,2.0343,2.0422,2.0378,2.0383,2.0386,2.0574,2.0576,2.0578,0,0,0,0,0,0,2.0015,2.003,2.0161,2.0104,2.0121,2.0163,2.0196,2.0202,2.0226,2.0273,2.0281,2.024,2.0321,2.0335,2.0399,2.0426,2.0385,2.0391,2.0572,2.0575,2.0577,2.0581,0,0,0,0,0,0,2.0009,2.0028,2.0052,2.0104,2.0124,2.0214,2.0198,2.0205,2.0235,2.0235,2.0291,2.0299,2.0321,2.0391,2.0405,2.0433,2.0395,2.057,2.0573,2.0576,2.0579,2.0584,2.0588,0,0,0,0,0,2.0003,2.005,2.0053,2.0068,2.0154,2.0215,2.0227,2.025,2.0237,2.0262,2.0293,2.0297,2.0421,2.0397,2.0413,2.0443,2.0568,2.0572,2.0576,2.0577,2.0583,2.0588,0,0,0,0,0,0,2.0002,2.0058,2.0061,2.0126,2.0166,2.0217,2.0249,2.0255,2.03,2.0298,2.0327,2.034,2.0403,2.043,2.0403,2.0509,2.0494,2.0501,2.0489,2.0495,2.0499,2.0491,2.04,0,0,0,0,0,2.0008,2.0052,2.0099,2.0152,2.0172,2.0207,2.0235,2.0249,2.0292,2.0309,2.0344,2.0387,2.0436,2.0467,2.0514,2.0583,2.0596,2.0612,2.0617,2.062,2.0626,2.0664,2.0671,2.0591,2.0591,2.0591,0,0,2.0024,2.006,2.0086,2.0153,2.0185,2.0231,2.0221,2.027,2.0304,2.0317,2.0379,2.0407,2.0457,2.0523,2.0555,2.0548,2.0651,2.0625,2.0627,2.0631,2.0669,2.0676,2.0683,2.0593,2.0593,2.0592,0,0,2.0074,2.0106,2.0153,2.0185,2.0234,2.0257,2.0268,2.0319,2.0337,2.04,2.041,2.0453,2.0536,2.0571,2.0599,2.0664,2.0669,2.0679,2.0701,2.0738,2.0744,2.075,2.0772,2.078,2.0684,2.0684,2.0684,0,2.0087,2.0154,2.0177,2.0225,2.0254,2.0267,2.0315,2.0346,2.0408,2.0429,2.0421,2.0525,2.0559,2.0634,2.0649,2.0673,2.0687,2.0672,2.0741,2.0747,2.0753,2.0774,2.0783,2.0685,2.0685,2.0685,2.0685,0,2.0168,2.0215,2.0247,2.0305,2.0338,2.0387,2.0418,2.0449,2.0461,2.0486,2.055,2.0592,2.0647,2.0667,2.068,2.0744,2.0738,2.0735,2.0719,2.0761,2.0781,2.079,2.0686,2.0686,2.0686,2.0685,0,0,2.0219,2.0288,2.03,2.0326,2.038,2.0418,2.0467,2.052,2.0546,2.0589,2.0632,2.0702,2.0699,2.0732,2.0749,2.0782,2.0829,2.0775,2.0777,2.0782,2.0901,2.0902,2.0911,2.0834,2.0835,2.0837,2.0897,0,2.0274,2.036,2.0382,2.0456,2.05,2.0513,2.0556,2.0595,2.062,2.0662,2.069,2.0738,2.0732,2.0752,2.0785,2.0816,2.0853,2.0812,2.0874,2.0876,2.0859,2.0922,2.0923,2.0977,2.0905,2.0906,2.0907,0,2.035,2.0393,2.047,2.0519,2.0538,2.0576,2.0626,2.0666,2.0711,2.0727,2.0763,2.0777,2.0831,2.0813,2.0887,2.0859,2.0886,2.0906,2.0908,2.0914,2.0893,2.0928,2.0995,2.1003,2.0921,2.092,2.0919,0,2.0378,2.0455,2.0511,2.0533,2.0592,2.0618,2.0644,2.0688,2.0718,2.0763,2.0783,2.0834,2.0862,2.0902,2.093,2.0915,2.1002,2.0987,2.1017,2.1016,2.1033,2.1031,2.1104,2.1053,2.1053,2.1053,2.1053,0,2.0437,2.0484,2.0524,2.0558,2.0612,2.0638,2.069,2.0717,2.0756,2.0797,2.0812,2.0851,2.0886,2.0929,2.0952,2.101,2.1023,2.1037,2.1043,2.1035,2.1033,2.1052,2.1049,2.1055,2.1054,2.1054,2.1054,0,2.0476,2.0505,2.0567,2.0617,2.0631,2.0668,2.0711,2.0746,2.0772,2.0823,2.0837,2.0877,2.0929,2.0961,2.1028,2.1043,2.1107,2.1111,2.109,2.1092,2.112,2.1116,2.1207,2.122,2.1161,2.1161,2.1162,0,2.0511,2.0547,2.06,2.0628,2.0654,2.0698,2.0729,2.0757,2.0788,2.0842,2.0871,2.0923,2.0967,2.105,2.1086,2.1137,2.1142,2.1171,2.115,2.1141,2.1141,2.1138,2.1142,2.1173,2.1174,2.1174,2.1175,0,2.0569,2.0582,2.0624,2.0672,2.0707,2.0747,2.0786,2.0809,2.0844,2.0879,2.0931,2.0964,2.1032,2.1084,2.1138,2.1167,2.1177,2.1181,2.119,2.1182,2.1168,2.1175,2.1098,2.1178,2.1178,2.1178,2.1178,2.1177,2.0606,2.0638,2.0681,2.0728,2.0761,2.0797,2.0832,2.0861,2.0905,2.096,2.0975,2.103,2.1075,2.1148,2.1178,2.1222,2.1218,2.1232,2.1236,2.1238,2.1238,2.1162,2.1233,2.1233,2.1233,2.1233,2.1233,0,2.0664,2.0692,2.0735,2.0789,2.0826,2.0831,2.0876,2.0907,2.0954,2.0995,2.1036,2.1097,2.1148,2.1188,2.1241,2.1268,2.1274,2.1281,2.1279,2.1285,2.1239,2.1225,2.1275,2.1275,2.1275,2.1275,2.1275,2.1275,2.0698,2.0753,2.0771,2.0842,2.0871,2.0923,2.0947,2.0982,2.1014,2.108,2.1121,2.1147,2.1188,2.1243,2.129,2.1301,2.1319,2.1325,2.1337,2.1293,2.1288,2.1284,2.127,2.1329,2.1329,2.1378,2.1379,2.1379]},{"header":{"parameterUnit":"m.s-1","parameterCategory":1,"la1":30.2991,"la2":30.254,"lo1":-89.0895,"lo2":-89.0444,"dy":0.0017,"dx":0.0017,"nx":28,"ny":28,"refTime":"2023-08-15T03:00:00:Z","depth":0,"parameterNumber":3,"parameterNumberName":"V-component_of_WINDS"},"data":[0,0,0,0,0,0,0,0,0,0,0,0,0,0,0,0,0,0,0,0,0,0,0,0,0,0,0,0,0,0,0,0,0,0,0,0,0,0,0,0,0,0,0,0,0,0,0,0,0,0,0,0,0,0,0,0,0,0,6.1574,6.1576,0,6.1702,6.1703,6.1704,6.1696,6.1694,6.1692,6.1691,6.1809,6.1814,6.1819,0,0,0,0,0,0,0,0,0,0,0,0,0,6.1309,6.1314,6.1574,6.1576,6.1577,6.1701,6.1703,6.1705,6.1696,6.1694,6.1692,6.169,6.1807,6.1813,6.1819,0,0,0,0,0,0,0,0,0,0,0,0,0,6.1429,6.1316,6.1574,6.1588,6.1591,6.1701,6.1703,6.1705,6.1697,6.1694,6.1691,6.1689,6.1806,6.1813,6.182,6.192,0,0,6.1842,6.1845,0,0,0,0,0,0,0,0,6.1422,6.1438,6.1585,6.1588,6.1591,6.1681,6.1653,6.1777,6.1698,6.1656,6.1691,6.1687,6.1768,6.1778,6.1807,6.1925,6.1931,6.1843,6.1847,6.185,6.1852,0,0,0,0,0,0,0,6.1414,6.1433,6.1624,6.1587,6.159,6.1584,6.1598,6.1676,6.1725,6.166,6.1659,6.1675,6.1769,6.18,6.181,6.1932,6.1843,6.1849,6.1853,6.1856,6.2133,6.2136,0,0,0,0,0,0,6.1404,6.1426,6.162,6.1628,6.1498,6.1591,6.1606,6.1654,6.1725,6.1733,6.1678,6.1674,6.1789,6.1802,6.1814,6.1933,6.185,6.1857,6.1861,6.213,6.2134,6.2137,0,0,0,0,0,0,6.1398,6.1421,6.1615,6.1527,6.1551,6.1598,6.1652,6.1658,6.169,6.1738,6.1746,6.1702,6.1788,6.1804,6.1893,6.1937,6.186,6.1867,6.2127,6.2131,6.2136,6.2173,0,0,0,0,0,0,6.1391,6.142,6.1462,6.1528,6.1556,6.1697,6.1655,6.1663,6.1704,6.1701,6.1763,6.1771,6.1787,6.1883,6.1901,6.1946,6.1873,6.2123,6.2129,6.2134,6.2168,6.2179,6.2187,0,0,0,0,0,6.1381,6.1466,6.1464,6.1487,6.1611,6.1699,6.1715,6.1735,6.1708,6.1748,6.1778,6.1769,6.193,6.1892,6.1912,6.196,6.212,6.2127,6.2134,6.2164,6.2177,6.2187,0,0,0,0,0,0,6.1399,6.1475,6.1474,6.1583,6.1635,6.1698,6.1749,6.1748,6.1806,6.18,6.1819,6.1833,6.1922,6.195,6.1907,6.2058,6.2021,6.2032,6.2037,6.2049,6.2059,6.2049,6.1879,0,0,0,0,0,6.1417,6.1487,6.1547,6.1637,6.1664,6.1702,6.1742,6.1753,6.1806,6.1827,6.1864,6.1912,6.1973,6.2013,6.2072,6.2173,6.2183,6.2215,6.2224,6.2232,6.2241,6.2292,6.2305,6.2159,6.2159,6.2159,0,0,6.1452,6.1502,6.1544,6.1642,6.1684,6.1751,6.1721,6.1794,6.1843,6.1836,6.1924,6.1952,6.2007,6.2101,6.2145,6.2127,6.2283,6.2241,6.2246,6.2251,6.23,6.2314,6.2326,6.2164,6.2163,6.2162,0,0,6.155,6.1597,6.1676,6.1718,6.1783,6.1808,6.1826,6.1889,6.1909,6.1997,6.1993,6.2049,6.2155,6.2193,6.2226,6.2336,6.2327,6.2354,6.2403,6.2452,6.2464,6.2474,6.251,6.2523,6.2363,6.2363,6.2363,0,6.1584,6.1691,6.1715,6.1789,6.183,6.1831,6.1907,6.1946,6.2025,6.2051,6.2031,6.2163,6.22,6.2301,6.2328,6.2356,6.2374,6.2347,6.2461,6.2471,6.2481,6.2515,6.2529,6.2366,6.2365,6.2365,6.2365,0,6.1727,6.1801,6.1855,6.1935,6.1982,6.2057,6.2088,6.2132,6.2138,6.2163,6.225,6.2294,6.2361,6.2386,6.2392,6.2487,6.2474,6.2458,6.242,6.2497,6.253,6.2543,6.2369,6.2368,6.2368,6.2367,0,0,6.1841,6.1933,6.1952,6.1987,6.2057,6.2112,6.2184,6.2253,6.2288,6.2341,6.2399,6.2488,6.2473,6.251,6.252,6.2564,6.2643,6.2541,6.2542,6.2556,6.2746,6.2757,6.2772,6.2639,6.2641,6.2643,6.2741,0,6.1944,6.2078,6.21,6.2215,6.228,6.228,6.2342,6.2389,6.2414,6.2468,6.2493,6.2555,6.2532,6.2554,6.2597,6.2624,6.2681,6.2618,6.2688,6.269,6.2673,6.279,6.2802,6.2892,6.2754,6.2756,6.2757,0,6.2083,6.2143,6.2265,6.2324,6.2352,6.2409,6.2471,6.2525,6.2576,6.259,6.2632,6.2636,6.2705,6.2666,6.2759,6.2716,6.2745,6.2762,6.2766,6.2772,6.2727,6.2795,6.2921,6.2934,6.2778,6.2776,6.2775,0,6.2149,6.2261,6.2347,6.2377,6.2449,6.2488,6.2518,6.2568,6.2606,6.2659,6.2684,6.2743,6.2775,6.2818,6.2836,6.2807,6.2927,6.289,6.2937,6.2936,6.2961,6.2959,6.3091,6.2984,6.2984,6.2983,6.2983,0,6.2261,6.2335,6.2378,6.2431,6.2512,6.2535,6.2613,6.2641,6.2684,6.2739,6.2742,6.2792,6.2814,6.2866,6.288,6.2953,6.2968,6.2978,6.298,6.2977,6.2975,6.2995,6.2988,6.2987,6.2986,6.2986,6.2985,0,6.2349,6.2382,6.2475,6.2536,6.2553,6.2609,6.2658,6.2707,6.2731,6.28,6.2817,6.2852,6.2914,6.2937,6.3011,6.3019,6.3103,6.3102,6.3087,6.3087,6.3132,6.3126,6.3279,6.3299,6.3181,6.3182,6.3183,0,6.2417,6.2474,6.2541,6.258,6.2613,6.2675,6.2715,6.2738,6.2779,6.284,6.288,6.2942,6.2993,6.309,6.312,6.3175,6.3173,6.3223,6.3181,6.3175,6.317,6.3166,6.317,6.323,6.3231,6.3232,6.3233,0,6.2533,6.2546,6.2606,6.2671,6.272,6.2771,6.282,6.285,6.288,6.2924,6.2989,6.3029,6.3105,6.3165,6.3222,6.3248,6.3244,6.3246,6.3259,6.3255,6.3243,6.3248,6.3106,6.3242,6.3241,6.324,6.324,6.3239,6.2611,6.2661,6.2716,6.2781,6.2821,6.2867,6.2915,6.2946,6.3001,6.3068,6.3077,6.3145,6.319,6.3267,6.3295,6.3346,6.3332,6.3352,6.3356,6.336,6.3362,6.3237,6.3356,6.3356,6.3356,6.3355,6.3355,0,6.2725,6.276,6.2821,6.2891,6.2941,6.2937,6.2991,6.3032,6.3093,6.3138,6.3189,6.326,6.3318,6.3352,6.3409,6.3442,6.3441,6.3456,6.3452,6.3458,6.3373,6.3355,6.3455,6.3455,6.3455,6.3455,6.3455,6.3455,6.279,6.2873,6.2892,6.2993,6.3026,6.3096,6.3127,6.3167,6.3203,6.3285,6.3334,6.3357,6.3396,6.3455,6.3506,6.3514,6.3533,6.3549,6.3555,6.3475,6.3464,6.3454,6.3437,6.3553,6.3554,6.3635,6.3636,6.3637]}]]